Belfast International Airport

Jump to: basic info | weather | frequencies | runways | comments

Related pages: nearby airports | nearby navaids | notams | map

Basic information (top)

Codes: BFS EGAA
Location: lon 54.657501, lat -6.215830, elev 268 ft / 82 m msl
Status: large_airport
Scheduled airline service: yes
Links: Wikipedia Mobile

Weather (top)

Current conditions (rec'd 2015/04/26 23:50Z):

EGAA 262350Z 13002KT CAVOK M02/M04 Q1013

Airport forecast (rec'd 2015/04/26 00:14Z):

TAF EGAA 262258Z 2700/2724 VRB03KT 9999 SCT025 
      BECMG 2705/2708 22015KT 
      TEMPO 2708/2724 3000 SHRAGS SHRASN BKN008 BKN015CB 
      BECMG 2713/2716 23022G35KT 
      BECMG 2719/2722 27020G30KT

Frequencies (top)

Verify before use: may be inaccurate or out of date.

APP: 128.5 MHz (APP)
ATIS: 128.2 MHz (ATIS)
GND: 121.75 MHz (GND)
ILS 17: 110.9 MHz ()
ILS 25: 109.9 MHz ()
OPS: 26.48 MHz (OPS)
RDR: 120.9 MHz (DIRECTOR)
TWR: 118.3 MHz (TWR)

Runways (top)

07/25: 9,121 x 148 ft (2,780 x 45 m) — paved — lighted

17/35: 6,401 x 148 ft (1,951 x 45 m) — paved — lighted — threshold 17 displaced 525 ft (160 m) — threshold 35 displaced 502 ft (153 m)

Latest comments (top)

No comments yet for Belfast International Airport

More... (top)

See also NOTAMs and nearby airports and navaids, or visit the Belfast International Airport page at the main OurAirports website..